Weather History for Jackson, MN

Change the Weather History Date:

Wednesday, February 6, 2013

  Actual Average Record
Temperature  
Mean Temperature 28 °F -  
Max Temperature 42 °F 27 °F 46 °F (2012)
Min Temperature 15 °F 10 °F -7 °F (2014)
Degree Days  
Heating Degree Days 36    
Moisture  
Dew Point 25 °F    
Average Humidity 81    
Maximum Humidity 93    
Minimum Humidity 66    
Precipitation  
Precipitation 0.00 in - - ()
Sea Level Pressure  
Sea Level Pressure 29.93 in    
Wind  
Wind Speed 8 mph (South)    
Max Wind Speed 23 mph    
Max Gust Speed 29 mph    
Visibility 10 miles    
Events      
Averages and records for this station are not official NWS values.
T = Trace of Precipitation, MM = Missing Value Source: NWS Daily Summary

Daily Weather History Graph

Daily Weather History Graph

Search for Another Location

Airport:

Trip Planner

Search our weather history database for the weather conditions in past years. The results will help you decide how hot, cold, wet, or windy it might be!

Date:

Astronomy

Feb. 06, 2013 Rise Set
Actual Time 7:30 AM CST 5:38 PM CST
Civil Twilight 7:00 AM CST 6:08 PM CST
Nautical Twilight 6:26 AM CST 6:42 PM CST
Astronomical Twilight 5:52 AM CST 7:15 PM CST
Moon 4:18 AM CST (2/6) 1:54 PM CST (2/6)
Length of Visible Light 11h 08m
Length of Day
10h 08m
Waning Crescent, 17% of the Moon is Illuminated
Feb 6
Waning Crescent
Feb 10
New
Feb 17
First Quarter
Feb 25
Full
Mar 4
Last Quarter

Hourly Weather History & Observations

Time (CST) Temp. Windchill Dew Point Humidity Pressure Visibility Wind Dir Wind Speed Gust Speed Precip Events Conditions
12:13 AM 17.6 °F 8.2 °F 14.0 °F 86% 30.04 in 10.0 mi South 6.9 mph - N/A   Clear
12:33 AM 17.6 °F 12.3 °F 14.0 °F 86% 30.03 in 10.0 mi South 3.5 mph - N/A   Clear
1:13 AM 17.6 °F - 14.0 °F 86% 30.03 in 10.0 mi Calm Calm - N/A   Clear
1:33 AM 15.8 °F 10.2 °F 12.2 °F 86% 30.03 in 10.0 mi South 3.5 mph - N/A   Clear
1:53 AM 15.8 °F 7.2 °F 12.2 °F 86% 30.03 in 10.0 mi ESE 5.8 mph - N/A   Clear
2:13 AM 15.8 °F 7.2 °F 12.2 °F 86% 30.03 in 10.0 mi SSE 5.8 mph - N/A   Clear
2:32 AM 17.6 °F 9.3 °F 12.2 °F 79% 30.03 in 10.0 mi South 5.8 mph - N/A   Scattered Clouds
2:53 AM 17.6 °F 4.3 °F 14.0 °F 86% 30.04 in 10.0 mi South 12.7 mph - N/A   Mostly Cloudy
3:13 AM 17.6 °F 5.0 °F 14.0 °F 86% 30.04 in 10.0 mi South 11.5 mph - N/A   Overcast
3:32 AM 19.4 °F 7.9 °F 14.0 °F 80% 30.03 in 10.0 mi SSW 10.4 mph - N/A   Overcast
3:53 AM 19.4 °F 9.5 °F 15.8 °F 86% 30.02 in 10.0 mi South 8.1 mph - N/A   Overcast
4:13 AM 19.4 °F 9.5 °F 15.8 °F 86% 30.02 in 10.0 mi South 8.1 mph - N/A   Overcast
4:32 AM 19.4 °F 11.5 °F 15.8 °F 86% 30.02 in 10.0 mi South 5.8 mph - N/A   Overcast
4:53 AM 19.4 °F 8.6 °F 15.8 °F 86% 30.02 in 10.0 mi South 9.2 mph - N/A   Overcast
5:13 AM 21.2 °F 13.6 °F 17.6 °F 86% 30.02 in 10.0 mi South 5.8 mph - N/A   Overcast
5:32 AM 21.2 °F 13.6 °F 17.6 °F 86% 30.01 in 10.0 mi SSE 5.8 mph - N/A   Overcast
6:13 AM 21.2 °F 11.7 °F 17.6 °F 86% 30.00 in 10.0 mi SSE 8.1 mph - N/A   Overcast
6:32 AM 23.0 °F 11.7 °F 17.6 °F 80% 30.01 in 10.0 mi South 11.5 mph - N/A   Overcast
6:53 AM 23.0 °F 13.1 °F 19.4 °F 86% 30.00 in 10.0 mi South 9.2 mph - N/A   Overcast
7:13 AM 23.0 °F 13.1 °F 17.6 °F 80% 29.99 in 10.0 mi SSE 9.2 mph - N/A   Overcast
7:32 AM 23.0 °F 11.7 °F 19.4 °F 86% 29.98 in 10.0 mi SSE 11.5 mph - N/A   Overcast
7:53 AM 23.0 °F 11.1 °F 19.4 °F 86% 29.98 in 7.0 mi SSE 12.7 mph - N/A   Overcast
8:13 AM 24.8 °F 12.9 °F 19.4 °F 80% 29.96 in 7.0 mi SSE 13.8 mph - N/A   Overcast
8:32 AM 24.8 °F 12.4 °F 21.2 °F 86% 29.96 in 7.0 mi SSE 15.0 mph - N/A   Overcast
8:53 AM 26.6 °F 16.2 °F 21.2 °F 80% 29.96 in 7.0 mi SSE 11.5 mph - N/A   Scattered Clouds
9:12 AM 26.6 °F 16.8 °F 21.2 °F 80% 29.95 in 7.0 mi SSE 10.4 mph - N/A   Clear
9:33 AM 28.4 °F 18.5 °F 23.0 °F 80% 29.95 in 10.0 mi SSE 11.5 mph 17.3 mph N/A   Clear
9:53 AM 30.2 °F 18.9 °F 23.0 °F 75% 29.95 in 10.0 mi SSE 16.1 mph - N/A   Clear
10:12 AM 32.0 °F 21.2 °F 24.8 °F 75% 29.94 in 10.0 mi SSE 16.1 mph 24.2 mph N/A   Clear
10:33 AM 33.8 °F 22.8 °F 26.6 °F 75% 29.92 in 10.0 mi SSE 18.4 mph 26.5 mph N/A   Clear
10:53 AM 33.8 °F 22.8 °F 26.6 °F 75% 29.91 in 10.0 mi SSE 18.4 mph 27.6 mph N/A   Clear
11:12 AM 33.8 °F 22.5 °F 28.4 °F 81% 29.90 in 10.0 mi SSE 19.6 mph 27.6 mph N/A   Clear
11:33 AM 35.6 °F 24.0 °F 28.4 °F 75% 29.88 in 10.0 mi SSE 23.0 mph 28.8 mph N/A   Clear
11:53 AM 37.4 °F 26.6 °F 30.2 °F 75% 29.86 in 10.0 mi South 21.9 mph 28.8 mph N/A   Clear
12:12 PM 39.2 °F 29.0 °F 30.2 °F 70% 29.86 in 10.0 mi South 21.9 mph 26.5 mph N/A   Clear
12:33 PM 39.2 °F 29.0 °F 30.2 °F 70% 29.85 in 10.0 mi South 21.9 mph 28.8 mph N/A   Clear
12:53 PM 37.4 °F 27.8 °F 30.2 °F 75% 29.85 in 10.0 mi South 17.3 mph 26.5 mph N/A   Clear
1:12 PM 37.4 °F 28.2 °F 32.0 °F 81% 29.85 in 10.0 mi South 16.1 mph 21.9 mph N/A   Clear
1:33 PM 39.2 °F 31.2 °F 32.0 °F 75% 29.84 in 10.0 mi South 13.8 mph - N/A   Clear
1:53 PM 41.0 °F 33.9 °F 32.0 °F 70% 29.83 in 10.0 mi SSW 12.7 mph 18.4 mph N/A   Clear
2:12 PM 41.0 °F 33.1 °F 32.0 °F 70% 29.82 in 10.0 mi South 15.0 mph 18.4 mph N/A   Clear
2:33 PM 42.8 °F 35.4 °F 32.0 °F 66% 29.81 in 10.0 mi SSW 15.0 mph 24.2 mph N/A   Scattered Clouds
2:53 PM 42.8 °F 36.6 °F 32.0 °F 66% 29.83 in 10.0 mi SSW 11.5 mph 18.4 mph N/A   Mostly Cloudy
3:12 PM 42.8 °F 37.5 °F 32.0 °F 66% 29.83 in 10.0 mi SW 9.2 mph - N/A   Scattered Clouds
3:33 PM 42.8 °F 37.5 °F 32.0 °F 66% 29.83 in 10.0 mi SSW 9.2 mph - N/A   Clear
3:52 PM 41.0 °F 35.8 °F 32.0 °F 70% 29.83 in 10.0 mi SW 8.1 mph - N/A   Clear
4:13 PM 41.0 °F 37.1 °F 32.0 °F 70% 29.83 in 10.0 mi SW 5.8 mph - N/A   Clear
4:53 PM 39.2 °F 35.9 °F 32.0 °F 75% 29.84 in 10.0 mi SW 4.6 mph - N/A   Mostly Cloudy
5:13 PM 39.2 °F 35.0 °F 32.0 °F 75% 29.84 in 10.0 mi SSW 5.8 mph - N/A   Overcast
5:33 PM 37.4 °F 32.1 °F 32.0 °F 81% 29.85 in 10.0 mi SSW 6.9 mph - N/A   Overcast
5:53 PM 39.2 °F 34.2 °F 32.0 °F 75% 29.85 in 10.0 mi SSW 6.9 mph - N/A   Overcast
6:12 PM 37.4 °F 32.8 °F 32.0 °F 81% 29.86 in 10.0 mi SSW 5.8 mph - N/A   Overcast
6:33 PM 37.4 °F - 32.0 °F 81% - 10.0 mi Calm Calm - N/A   Mostly Cloudy
6:53 PM 37.4 °F - 32.0 °F 81% 29.87 in 10.0 mi Calm Calm - N/A   Overcast
7:12 PM 37.4 °F 33.8 °F 32.0 °F 81% 29.88 in 10.0 mi South 4.6 mph - N/A   Overcast
7:33 PM 35.6 °F 30.7 °F 32.0 °F 87% 29.88 in 10.0 mi South 5.8 mph - N/A   Overcast
7:53 PM 37.4 °F 32.8 °F 32.0 °F 81% 29.88 in 10.0 mi South 5.8 mph - N/A   Mostly Cloudy
8:12 PM 37.4 °F 34.9 °F 32.0 °F 81% 29.88 in 10.0 mi South 3.5 mph - N/A   Scattered Clouds
8:33 PM 35.6 °F 31.7 °F 32.0 °F 87% 29.89 in 10.0 mi SSW 4.6 mph - N/A   Scattered Clouds
8:53 PM 33.8 °F - 32.0 °F 93% 29.89 in 10.0 mi Calm Calm - N/A   Scattered Clouds
9:13 PM 33.8 °F - 32.0 °F 93% 29.89 in 10.0 mi Calm Calm - N/A   Scattered Clouds
9:33 PM 33.8 °F - 32.0 °F 93% 29.90 in 10.0 mi Calm Calm - N/A   Clear
9:52 PM 33.8 °F - 32.0 °F 93% 29.91 in 10.0 mi Calm Calm - N/A   Scattered Clouds
10:13 PM 33.8 °F - 30.2 °F 87% 29.91 in 10.0 mi Calm Calm - N/A   Mostly Cloudy
10:32 PM 33.8 °F 30.8 °F 32.0 °F 93% 29.91 in 10.0 mi WSW 3.5 mph - N/A   Mostly Cloudy
10:53 PM 35.6 °F 31.7 °F 32.0 °F 87% 29.90 in 10.0 mi WSW 4.6 mph - N/A   Scattered Clouds
11:13 PM 33.8 °F - 32.0 °F 93% 29.91 in 10.0 mi Calm Calm - N/A   Scattered Clouds
11:32 PM 35.6 °F - 32.0 °F 87% 29.91 in 10.0 mi Calm Calm - N/A   Clear
11:53 PM 33.8 °F - 32.0 °F 93% 29.91 in 10.0 mi Calm Calm - N/A   Clear